period_start,C,m1,H,J0,J1,J2,J3,J4,J5,JA,JB,JC,JD,JJ,JK,JN,#
2013-12-18 00:00:50,0.34,3.28,0.00,23.62,27.02,29.86,6.12,30.63,1032.26,2041.62,2400.14,2478.61,2695.05,349.92,328.19,10.82,0000 0000 0000 0000 000000
2013-12-18 00:01:50,0.32,3.29,0.00,23.59,27.02,29.85,6.05,30.75,1032.28,2041.64,2399.91,2478.24,2694.71,350.31,328.59,10.83,0000 0000 0000 0000 000000
2013-12-18 00:02:50,0.25,3.29,0.00,23.73,27.02,29.86,5.97,30.58,1032.29,2041.77,2399.42,2478.08,2694.28,349.74,327.92,10.83,0000 0000 0000 0000 000000
2013-12-18 00:03:50,0.30,3.29,0.00,23.69,27.02,29.88,6.12,30.67,1032.26,2041.80,2399.09,2477.86,2694.08,349.83,328.51,10.84,0000 0000 0000 0000 000000
2013-12-18 00:04:50,0.23,3.29,0.00,23.68,27.02,29.86,6.16,30.50,1032.25,2041.68,2398.52,2477.35,2693.68,350.76,328.92,10.85,0000 0000 0000 0000 000000
2013-12-18 00:05:51,0.32,3.29,0.00,23.62,27.02,29.86,6.31,31.17,1032.25,2041.68,2398.18,2477.12,2693.28,351.34,329.51,10.85,0000 0000 0000 0000 000000
2013-12-18 00:06:51,0.14,3.29,0.00,23.62,27.02,29.84,6.09,30.67,1032.28,2041.67,2397.84,2476.98,2693.09,350.00,328.27,10.86,0000 0000 0000 0000 000000
2013-12-18 00:07:51,0.18,3.29,0.00,23.66,27.02,29.87,6.14,30.71,1032.30,2041.67,2397.35,2476.49,2692.67,350.29,328.50,10.86,0000 0000 0000 0000 000000
2013-12-18 00:08:51,0.35,3.30,0.00,23.68,27.02,29.87,6.06,30.46,1032.33,2041.65,2397.11,2476.18,2692.26,350.47,328.66,10.87,0000 0000 0000 0000 000000
2013-12-18 00:09:51,0.20,3.30,0.00,23.76,27.02,29.90,5.99,30.38,1032.30,2041.55,2396.69,2476.03,2692.09,350.33,328.43,10.88,0000 0000 0000 0000 000000
2013-12-18 00:10:51,0.10,3.30,0.00,23.67,27.02,29.87,5.99,30.63,1032.33,2041.47,2396.26,2475.68,2691.72,349.04,327.63,10.88,0000 0000 0000 0000 000000
2013-12-18 00:11:51,0.22,3.30,0.00,23.68,27.02,29.86,6.07,30.54,1032.38,2041.52,2395.99,2475.26,2691.27,349.55,327.82,10.89,0000 0000 0000 0000 000000
2013-12-18 00:12:52,0.28,3.30,0.00,23.67,27.02,29.86,6.09,30.33,1032.49,2041.45,2395.48,2475.09,2691.08,350.59,329.32,10.89,0000 0000 0000 0000 000000
2013-12-18 00:13:52,0.13,3.30,0.00,23.65,27.02,29.84,5.97,30.38,1032.52,2041.44,2395.17,2474.86,2690.79,349.69,328.03,10.90,0000 0000 0000 0000 000000
2013-12-18 00:14:52,0.30,3.30,0.00,23.66,27.02,29.86,6.02,30.25,1032.59,2041.50,2394.76,2474.39,2690.34,350.61,328.62,10.90,0000 0000 0000 0000 000000
2013-12-18 00:15:52,0.32,3.31,0.00,23.65,27.02,29.87,6.14,30.75,1032.63,2041.42,2394.28,2474.13,2690.11,350.34,328.55,10.91,0000 0000 0000 0000 000000
2013-12-18 00:16:52,0.17,3.31,0.00,23.60,27.02,29.84,6.06,30.46,1032.62,2041.31,2393.92,2473.91,2689.75,350.50,328.87,10.92,0000 0000 0000 0000 000000
2013-12-18 00:17:53,0.15,3.31,0.00,23.70,27.02,29.85,6.01,30.75,1032.62,2041.22,2393.38,2473.43,2689.30,349.98,328.28,10.92,0000 0000 0000 0000 000000
2013-12-18 00:18:53,0.28,3.31,0.00,23.73,27.02,29.88,6.07,30.67,1032.57,2041.22,2393.11,2473.16,2689.09,350.74,328.93,10.93,0000 0000 0000 0000 000000
2013-12-18 00:19:53,0.19,3.31,0.00,23.71,27.02,29.88,6.08,30.38,1032.47,2041.30,2392.66,2473.04,2688.80,351.19,329.35,10.93,0000 0000 0000 0000 000000
2013-12-18 00:20:53,0.25,3.31,0.00,23.69,27.02,29.87,6.08,30.79,1032.41,2041.24,2392.25,2472.67,2688.32,348.94,327.24,10.94,0000 0000 0000 0000 000000
2013-12-18 00:21:54,0.28,3.31,0.00,23.73,27.02,29.86,6.06,30.75,1032.35,2041.18,2391.95,2472.25,2688.11,350.10,328.26,10.95,0000 0000 0000 0000 000000
2013-12-18 00:22:54,0.16,3.31,0.00,23.70,27.02,29.83,6.04,30.58,1032.35,2041.21,2391.47,2472.09,2687.86,350.03,328.08,10.95,0000 0000 0000 0000 000000
2013-12-18 00:23:54,0.26,3.32,0.00,23.67,27.01,29.83,6.13,30.63,1032.36,2041.16,2391.16,2471.82,2687.35,351.01,329.13,10.96,0000 0000 0000 0000 000000
2013-12-18 00:24:54,0.20,3.32,0.00,23.69,27.01,29.83,6.00,30.63,1032.39,2041.10,2390.65,2471.34,2687.13,349.11,327.39,10.96,0000 0000 0000 0000 000000
2013-12-18 00:25:55,0.26,3.32,0.00,23.67,27.01,29.84,6.14,30.75,1032.46,2041.14,2390.26,2471.11,2686.93,350.88,329.10,10.97,0000 0000 0000 0000 000000
2013-12-18 00:26:55,0.20,3.32,0.00,23.70,27.01,29.86,6.06,30.63,1032.51,2041.10,2389.95,2470.93,2686.43,350.19,328.44,10.97,0000 0000 0000 0000 000000
2013-12-18 00:27:55,0.19,3.32,0.00,23.68,27.01,29.85,6.07,30.67,1032.53,2041.07,2389.42,2470.44,2686.16,350.58,328.83,10.98,0000 0000 0000 0000 000000
2013-12-18 00:28:55,0.31,3.32,0.00,23.66,27.01,29.84,6.11,30.54,1032.52,2041.09,2389.14,2470.17,2685.99,350.46,328.74,10.99,0000 0000 0000 0000 000000
2013-12-18 00:29:56,0.19,3.32,0.00,23.70,27.01,29.82,6.20,30.75,1032.49,2041.10,2388.73,2470.05,2685.53,351.36,329.52,10.99,0000 0000 0000 0000 000000
2013-12-18 00:30:56,0.26,3.32,0.00,23.73,27.01,29.82,6.08,30.50,1032.44,2041.17,2388.27,2469.67,2685.19,350.66,328.82,11.00,0000 0000 0000 0000 000000
2013-12-18 00:31:56,0.36,3.33,0.00,23.68,27.01,29.82,5.97,30.25,1032.39,2041.14,2388.02,2469.26,2685.05,349.61,327.87,11.00,0000 0000 0000 0000 000000
2013-12-18 00:32:56,0.13,3.33,0.00,23.68,27.00,29.83,6.02,30.33,1032.39,2041.15,2387.47,2469.09,2684.68,349.69,327.96,11.01,0000 0000 0000 0000 000000
2013-12-18 00:33:56,0.27,3.33,0.00,23.66,27.00,29.83,6.09,30.75,1032.43,2041.25,2387.16,2468.88,2684.26,350.82,329.04,11.02,0000 0000 0000 0000 000000
2013-12-18 00:34:56,0.36,3.33,0.00,23.70,27.00,29.84,6.11,30.75,1032.50,2041.21,2386.73,2468.39,2684.08,350.66,328.87,11.02,0000 0000 0000 0000 000000
2013-12-18 00:35:57,0.25,3.33,0.00,23.77,27.00,29.84,5.98,30.75,1032.58,2041.19,2386.28,2468.15,2683.76,350.11,328.30,11.03,0000 0000 0000 0000 000000
2013-12-18 00:36:57,0.18,3.33,0.00,23.80,27.00,29.84,6.09,30.46,1032.59,2041.15,2385.97,2468.00,2683.29,349.43,327.01,11.03,0000 0000 0000 0000 000000
2013-12-18 00:37:57,0.17,3.34,0.00,23.86,27.00,29.85,6.13,30.83,1032.60,2041.24,2385.46,2467.62,2683.09,350.60,328.68,11.04,0000 0000 0000 0000 000000
2013-12-18 00:38:57,0.44,3.34,0.00,23.80,27.00,29.85,6.03,30.79,1032.61,2041.35,2385.16,2467.24,2682.81,350.17,327.87,11.04,0000 0000 0000 0000 000000
2013-12-18 00:39:57,0.31,3.34,0.00,23.79,27.00,29.86,6.13,30.71,1032.62,2041.35,2384.85,2467.06,2682.33,350.52,328.73,11.05,0000 0000 0000 0000 000000
2013-12-18 00:40:58,0.15,3.34,0.00,23.81,27.00,29.85,6.13,30.58,1032.62,2041.29,2384.33,2466.75,2682.11,350.31,328.37,11.06,0000 0000 0000 0000 000000
2013-12-18 00:41:58,0.27,3.34,0.00,23.84,27.00,29.85,6.16,31.17,1032.66,2041.28,2383.99,2466.30,2681.80,350.93,329.25,11.06,0000 0000 0000 0000 000000
2013-12-18 00:42:58,0.24,3.34,0.00,23.91,27.00,29.85,6.01,30.63,1032.62,2041.18,2383.43,2466.07,2681.33,349.16,327.32,11.07,0000 0000 0000 0000 000000
2013-12-18 00:43:58,0.20,3.34,0.00,23.99,27.00,29.86,6.07,30.38,1032.64,2041.15,2383.12,2465.63,2681.09,350.42,328.04,11.07,0000 0000 0000 0000 000000
2013-12-18 00:44:58,0.25,3.35,0.00,24.08,27.00,29.86,6.03,30.67,1032.66,2041.20,2382.62,2465.25,2680.72,350.56,328.69,11.08,0000 0000 0000 0000 000000
2013-12-18 00:45:58,0.40,3.35,0.00,24.05,27.00,29.85,6.04,30.92,1032.65,2041.20,2382.22,2465.08,2680.29,349.95,327.86,11.09,0000 0000 0000 0000 000000
2013-12-18 00:46:59,0.13,3.35,0.00,24.00,27.00,29.87,6.04,31.13,1032.67,2041.21,2381.86,2464.96,2680.10,348.47,327.13,11.09,0000 0000 0000 0000 000000
2013-12-18 00:47:59,0.21,3.35,0.00,23.91,27.00,29.85,5.93,30.50,1032.69,2041.32,2381.34,2464.53,2679.85,350.05,328.03,11.10,0000 0000 0000 0000 000000
2013-12-18 00:48:59,0.44,3.35,0.00,23.83,27.00,29.85,6.10,30.92,1032.69,2041.23,2381.00,2464.20,2679.35,348.98,327.79,11.10,0000 0000 0000 0000 000000
2013-12-18 00:49:59,0.16,3.35,0.00,23.86,27.00,29.85,6.05,30.92,1032.72,2041.18,2380.45,2464.00,2679.12,349.45,328.57,11.11,0000 0000 0000 0000 000000
2013-12-18 00:51:00,0.21,3.36,0.00,23.84,27.00,29.86,6.08,30.79,1032.73,2041.13,2380.13,2463.56,2678.71,350.32,328.40,11.12,0000 0000 0000 0000 000000
2013-12-18 00:52:00,0.25,3.36,0.00,23.80,27.00,29.86,6.31,31.00,1032.73,2041.16,2379.70,2463.21,2678.26,349.72,328.20,11.12,0000 0000 0000 0000 000000
2013-12-18 00:53:00,0.36,3.36,0.00,23.82,27.00,29.87,6.20,30.79,1032.73,2041.24,2379.28,2463.06,2678.08,350.27,328.45,11.13,0000 0000 0000 0000 000000
2013-12-18 00:54:00,0.20,3.36,0.00,23.81,27.00,29.85,6.03,30.83,1032.73,2041.17,2378.99,2462.67,2677.76,350.16,328.35,11.13,0000 0000 0000 0000 000000
2013-12-18 00:55:00,0.18,3.36,0.00,23.84,27.00,29.87,5.98,30.38,1032.73,2041.14,2378.46,2462.26,2677.31,350.06,328.22,11.14,0000 0000 0000 0000 000000
2013-12-18 00:56:00,0.36,3.36,0.00,23.85,27.00,29.86,6.17,30.79,1032.73,2041.07,2378.13,2462.08,2677.10,350.79,328.90,11.14,0000 0000 0000 0000 000000
2013-12-18 00:57:00,0.07,3.36,0.00,23.78,27.00,29.83,5.98,31.21,1032.73,2041.09,2377.62,2461.72,2676.63,350.53,328.73,11.15,0000 0000 0000 0000 000000
2013-12-18 00:58:01,0.40,3.37,0.00,23.72,27.00,29.82,6.17,30.96,1032.73,2041.06,2377.22,2461.29,2676.24,351.10,329.34,11.16,0000 0000 0000 0000 000000
2013-12-18 00:59:01,0.26,3.37,0.00,23.79,27.00,29.83,6.07,30.71,1032.73,2041.04,2376.98,2461.10,2676.08,348.73,327.05,11.16,0000 0000 0000 0000 000000
2013-12-18 01:00:01,0.09,3.37,0.00,23.78,27.00,29.88,6.03,30.58,1032.73,2041.04,2376.44,2460.87,2675.63,350.72,328.92,11.17,0000 0000 0000 0000 000000
2013-12-18 01:01:01,0.34,3.37,0.00,23.77,27.00,29.86,6.19,30.58,1032.73,2041.04,2376.14,2460.36,2675.23,351.48,329.63,11.17,0000 0000 0000 0000 000000
2013-12-18 01:02:01,0.31,3.37,0.00,23.79,27.00,29.85,6.13,30.50,1032.73,2041.02,2375.66,2460.13,2675.01,350.68,328.83,11.18,0000 0000 0000 0000 000000
2013-12-18 01:03:01,0.20,3.37,0.00,23.80,27.00,29.85,6.01,30.67,1032.73,2041.03,2375.23,2459.98,2674.55,349.13,327.50,11.19,0000 0000 0000 0000 000000
2013-12-18 01:04:02,0.25,3.37,0.00,23.91,27.00,29.84,6.06,30.79,1032.73,2041.05,2374.85,2459.51,2674.20,351.42,329.43,11.19,0000 0000 0000 0000 000000
2013-12-18 01:05:02,0.35,3.38,0.00,23.91,27.00,29.83,5.93,30.58,1032.73,2041.03,2374.34,2459.18,2674.06,349.62,327.73,11.20,0000 0000 0000 0000 000000
2013-12-18 01:06:02,0.18,3.38,0.00,23.83,26.99,29.85,6.13,30.92,1032.73,2041.03,2374.10,2459.03,2673.67,349.99,328.17,11.20,0000 0000 0000 0000 000000
2013-12-18 01:07:02,0.19,3.38,0.00,23.75,27.00,29.86,6.00,30.67,1032.73,2041.06,2373.67,2458.75,2673.24,349.48,327.64,11.21,0000 0000 0000 0000 000000
2013-12-18 01:08:03,0.34,3.38,0.00,23.84,27.00,29.84,5.90,30.50,1032.73,2041.14,2373.25,2458.30,2673.08,349.48,327.52,11.21,0000 0000 0000 0000 000000
2013-12-18 01:09:03,0.34,3.38,0.00,23.82,27.00,29.86,6.08,30.50,1032.73,2041.11,2372.94,2458.10,2672.75,350.18,328.52,11.22,0000 0000 0000 0000 000000
2013-12-18 01:10:03,0.14,3.38,0.00,23.85,26.99,29.84,6.15,30.63,1032.73,2041.11,2372.42,2457.93,2672.31,350.99,329.09,11.23,0000 0000 0000 0000 000000
2013-12-18 01:11:03,0.28,3.39,0.00,23.84,26.99,29.84,6.08,30.71,1032.73,2041.13,2372.15,2457.49,2672.11,349.30,327.51,11.23,0000 0000 0000 0000 000000
2013-12-18 01:12:03,0.25,3.39,0.00,23.87,26.99,29.82,6.13,30.38,1032.73,2041.10,2371.76,2457.17,2671.83,350.05,327.90,11.24,0000 0000 0000 0000 000000
2013-12-18 01:13:04,0.23,3.39,0.00,23.90,26.99,29.83,5.98,30.42,1032.73,2041.06,2371.28,2457.00,2671.35,349.32,327.46,11.24,0000 0000 0000 0000 000000
2013-12-18 01:14:04,0.19,3.39,0.00,23.88,26.99,29.83,6.07,30.33,1032.73,2041.06,2371.03,2456.57,2671.12,349.85,328.30,11.25,0000 0000 0000 0000 000000
2013-12-18 01:15:04,0.28,3.39,0.00,23.88,26.99,29.85,6.18,30.71,1032.73,2041.05,2370.51,2456.22,2670.88,350.52,328.67,11.26,0000 0000 0000 0000 000000
2013-12-18 01:16:04,0.26,3.39,0.00,23.86,26.99,29.84,6.06,30.63,1032.73,2041.04,2370.17,2456.07,2670.42,351.09,329.71,11.26,0000 0000 0000 0000 000000
2013-12-18 01:17:04,0.20,3.39,0.00,23.92,26.99,29.81,6.02,30.42,1032.73,2041.04,2369.69,2455.70,2670.14,350.83,328.28,11.27,0000 0000 0000 0000 000000
2013-12-18 01:18:05,0.30,3.40,0.00,23.99,26.98,29.85,6.07,30.63,1032.73,2041.05,2369.25,2455.26,2669.75,349.33,327.37,11.27,0000 0000 0000 0000 000000
2013-12-18 01:19:05,0.33,3.40,0.00,23.94,26.98,29.82,6.15,30.88,1032.73,2041.05,2368.91,2455.08,2669.31,350.19,328.23,11.28,0000 0000 0000 0000 000000
2013-12-18 01:20:05,0.24,3.40,0.00,24.02,26.97,29.84,5.98,30.79,1032.73,2041.07,2368.38,2454.85,2669.10,349.92,327.91,11.28,0000 0000 0000 0000 000000
2013-12-18 01:21:05,0.25,3.40,0.00,23.99,26.98,29.83,6.08,30.50,1032.74,2041.06,2368.12,2454.35,2668.79,350.42,328.39,11.29,0000 0000 0000 0000 000000
2013-12-18 01:22:05,0.27,3.40,0.00,23.96,26.97,29.84,6.02,30.54,1032.73,2041.05,2367.69,2454.13,2668.32,349.73,327.79,11.30,0000 0000 0000 0000 000000
2013-12-18 01:23:05,0.26,3.40,0.00,23.96,26.97,29.85,6.21,31.13,1032.73,2041.06,2367.25,2454.00,2668.11,350.88,328.86,11.30,0000 0000 0000 0000 000000
2013-12-18 01:24:06,0.19,3.40,0.00,23.95,26.97,29.85,6.06,30.88,1032.73,2041.10,2367.07,2453.60,2667.95,350.54,328.56,11.31,0000 0000 0000 0000 000000
2013-12-18 01:25:06,0.25,3.41,0.00,23.90,26.97,29.84,6.12,31.08,1032.74,2041.21,2366.78,2453.24,2667.48,349.69,327.82,11.31,0000 0000 0000 0000 000000
2013-12-18 01:26:06,0.36,3.41,0.00,24.00,26.97,29.84,6.04,30.88,1032.73,2041.27,2366.31,2453.07,2667.18,350.28,328.27,11.32,0000 0000 0000 0000 000000
2013-12-18 01:27:06,0.28,3.41,0.00,24.00,26.97,29.84,6.11,30.83,1032.74,2041.16,2365.99,2452.76,2666.90,350.68,328.56,11.33,0000 0000 0000 0000 000000
2013-12-18 01:28:07,0.14,3.41,0.00,23.96,26.97,29.83,6.08,30.79,1032.73,2041.08,2365.44,2452.30,2666.38,350.29,328.31,11.33,0000 0000 0000 0000 000000
2013-12-18 01:29:07,0.31,3.41,0.00,23.96,26.97,29.83,6.08,30.92,1032.76,2041.07,2365.12,2452.11,2666.13,349.66,327.73,11.34,0000 0000 0000 0000 000000
2013-12-18 01:30:07,0.20,3.41,0.00,23.98,26.97,29.81,5.99,30.54,1032.75,2041.07,2364.62,2451.86,2665.80,349.99,328.01,11.34,0000 0000 0000 0000 000000
2013-12-18 01:31:07,0.26,3.42,0.00,24.01,26.97,29.83,6.05,30.67,1032.78,2041.04,2364.23,2451.35,2665.34,349.89,328.20,11.35,0000 0000 0000 0000 000000
2013-12-18 01:32:07,0.30,3.42,0.00,23.90,26.97,29.82,6.12,30.67,1032.78,2041.07,2363.97,2451.12,2665.12,350.11,327.70,11.35,0000 0000 0000 0000 000000
2013-12-18 01:33:07,0.18,3.42,0.00,23.83,26.97,29.83,5.95,31.13,1032.82,2041.07,2363.48,2450.99,2664.95,349.20,327.87,11.36,0000 0000 0000 0000 000000
2013-12-18 01:34:08,0.22,3.42,0.00,23.92,26.97,29.81,6.08,30.79,1032.78,2041.06,2363.16,2450.55,2664.46,350.97,328.34,11.37,0000 0000 0000 0000 000000
2013-12-18 01:35:08,0.31,3.42,0.00,23.96,26.97,29.83,6.03,30.88,1032.79,2041.04,2362.71,2450.20,2664.17,350.02,328.68,11.37,0000 0000 0000 0000 000000
2013-12-18 01:36:08,0.25,3.42,0.00,23.99,26.97,29.85,6.19,31.04,1032.78,2041.03,2362.26,2450.04,2663.95,350.87,328.91,11.38,0000 0000 0000 0000 000000
2013-12-18 01:37:08,0.21,3.42,0.00,23.99,26.97,29.83,5.98,30.58,1032.78,2041.01,2361.92,2449.62,2663.45,349.47,327.41,11.38,0000 0000 0000 0000 000000
2013-12-18 01:38:09,0.31,3.43,0.00,23.93,26.97,29.86,6.11,30.83,1032.74,2041.04,2361.41,2449.25,2663.16,350.08,327.61,11.39,0000 0000 0000 0000 000000
2013-12-18 01:39:09,0.27,3.43,0.00,23.98,26.97,29.85,6.11,31.08,1032.74,2041.03,2361.13,2449.07,2662.94,350.61,328.55,11.40,0000 0000 0000 0000 000000
2013-12-18 01:40:09,0.17,3.43,0.00,24.03,26.97,29.84,6.04,30.88,1032.74,2041.03,2360.73,2448.93,2662.43,350.46,328.33,11.40,0000 0000 0000 0000 000000
2013-12-18 01:41:09,0.25,3.43,0.00,24.06,26.97,29.82,6.07,30.88,1032.73,2041.08,2360.28,2448.47,2662.15,350.62,328.51,11.41,0000 0000 0000 0000 000000
2013-12-18 01:42:10,0.33,3.43,0.00,23.93,26.97,29.84,6.11,31.17,1032.75,2041.07,2360.03,2448.17,2662.00,350.93,328.94,11.41,0000 0000 0000 0000 000000
2013-12-18 01:43:10,0.19,3.43,0.00,23.86,26.97,29.86,6.04,31.38,1032.74,2041.06,2359.49,2447.97,2661.55,349.98,328.14,11.42,0000 0000 0000 0000 000000
2013-12-18 01:44:10,0.29,3.43,0.00,23.86,26.97,29.83,6.13,31.13,1032.75,2041.06,2359.15,2447.48,2661.20,350.78,328.89,11.43,0000 0000 0000 0000 000000
2013-12-18 01:45:11,0.28,3.44,0.00,23.90,26.97,29.83,6.10,30.92,1032.73,2041.06,2358.66,2447.17,2661.01,350.36,328.44,11.43,0000 0000 0000 0000 000000
2013-12-18 01:46:11,0.26,3.44,0.00,24.00,26.97,29.82,6.12,30.92,1032.74,2041.08,2358.24,2447.05,2660.54,349.94,327.94,11.44,0000 0000 0000 0000 000000
2013-12-18 01:47:11,0.23,3.44,0.00,24.00,26.97,29.83,6.08,30.96,1032.73,2041.10,2358.00,2446.83,2660.20,350.26,328.50,11.44,0000 0000 0000 0000 000000
2013-12-18 01:48:12,0.22,3.44,0.00,23.95,26.97,29.81,6.14,31.00,1032.75,2041.15,2357.50,2446.37,2660.06,351.40,328.77,11.45,0000 0000 0000 0000 000000
2013-12-18 01:49:12,0.36,3.44,0.00,23.96,26.96,29.82,6.08,30.92,1032.75,2041.18,2357.18,2446.13,2659.72,350.14,328.75,11.45,0000 0000 0000 0000 000000
2013-12-18 01:50:12,0.25,3.44,0.00,23.96,26.96,29.84,6.03,31.13,1032.76,2041.17,2356.83,2445.98,2659.29,348.96,327.07,11.46,0000 0000 0000 0000 000000
2013-12-18 01:51:12,0.22,3.45,0.00,23.94,26.95,29.82,6.11,30.83,1032.74,2041.16,2356.32,2445.59,2659.09,349.78,327.86,11.47,0000 0000 0000 0000 000000
2013-12-18 01:52:12,0.27,3.45,0.00,23.94,26.95,29.84,6.06,30.79,1032.75,2041.11,2356.06,2445.23,2658.75,350.14,327.97,11.47,0000 0000 0000 0000 000000
2013-12-18 01:53:12,0.20,3.45,0.00,23.94,26.95,29.84,6.02,30.83,1032.75,2041.12,2355.55,2445.06,2658.29,350.29,327.92,11.48,0000 0000 0000 0000 000000
2013-12-18 01:54:13,0.27,3.45,0.00,24.05,26.95,29.83,6.03,30.58,1032.77,2041.09,2355.19,2444.73,2658.09,350.28,328.48,11.48,0000 0000 0000 0000 000000
2013-12-18 01:55:13,0.22,3.45,0.00,24.02,26.95,29.81,6.11,30.96,1032.75,2041.08,2354.81,2444.30,2657.72,350.63,328.57,11.49,0000 0000 0000 0000 000000
2013-12-18 01:56:13,0.29,3.45,0.00,23.98,26.95,29.82,5.97,30.50,1032.77,2041.08,2354.30,2444.11,2657.28,349.64,327.69,11.50,0000 0000 0000 0000 000000
2013-12-18 01:57:13,0.26,3.45,0.00,24.02,26.95,29.85,6.01,30.42,1032.76,2041.06,2354.08,2443.79,2657.10,350.53,328.47,11.50,0000 0000 0000 0000 000000
2013-12-18 01:58:14,0.17,3.46,0.00,24.05,26.95,29.83,6.05,30.42,1032.77,2041.08,2353.61,2443.33,2656.81,350.55,328.45,11.51,0000 0000 0000 0000 000000
2013-12-18 01:59:14,0.33,3.46,0.00,24.00,26.95,29.83,6.06,31.21,1032.78,2041.08,2353.22,2443.12,2656.33,349.91,328.68,11.51,0000 0000 0000 0000 000000
2013-12-18 02:00:14,0.24,3.46,0.00,24.03,26.95,29.82,5.93,30.67,1032.77,2041.06,2352.96,2443.00,2656.12,349.26,327.28,11.52,0000 0000 0000 0000 000000
2013-12-18 02:01:14,0.16,3.46,0.00,23.96,26.95,29.79,6.05,30.50,1032.80,2041.05,2352.44,2442.56,2655.82,350.50,328.63,11.52,0000 0000 0000 0000 000000
2013-12-18 02:02:15,0.30,3.46,0.00,24.02,26.95,29.81,6.00,30.75,1032.78,2041.04,2352.13,2442.19,2655.31,349.55,327.57,11.53,0000 0000 0000 0000 000000
2013-12-18 02:03:15,0.26,3.46,0.00,24.05,26.95,29.81,6.14,30.75,1032.78,2041.05,2351.67,2442.06,2655.10,351.73,329.59,11.54,0000 0000 0000 0000 000000
2013-12-18 02:04:15,0.22,3.46,0.00,23.98,26.95,29.82,6.09,30.79,1032.77,2041.05,2351.25,2441.74,2654.72,350.38,328.38,11.54,0000 0000 0000 0000 000000
2013-12-18 02:05:15,0.28,3.47,0.00,23.92,26.95,29.80,6.15,30.67,1032.78,2041.05,2350.88,2441.28,2654.28,349.88,327.98,11.55,0000 0000 0000 0000 000000
2013-12-18 02:06:16,0.32,3.47,0.00,23.91,26.95,29.83,6.08,30.54,1032.77,2041.06,2350.35,2441.10,2654.10,349.20,327.36,11.55,0000 0000 0000 0000 000000
2013-12-18 02:07:16,0.22,3.47,0.00,24.01,26.95,29.83,6.09,30.92,1032.79,2041.08,2350.11,2440.89,2653.79,349.94,327.95,11.56,0000 0000 0000 0000 000000
2013-12-18 02:08:16,0.24,3.47,0.00,23.98,26.95,29.83,5.95,30.92,1032.77,2041.10,2349.62,2440.39,2653.31,350.35,328.35,11.57,0000 0000 0000 0000 000000
2013-12-18 02:09:17,0.36,3.47,0.00,24.01,26.95,29.81,6.04,31.08,1032.79,2041.07,2349.24,2440.14,2653.11,349.46,327.50,11.57,0000 0000 0000 0000 000000
2013-12-18 02:10:17,0.17,3.47,0.00,24.05,26.95,29.81,5.93,30.63,1032.82,2041.06,2348.96,2439.97,2652.83,349.62,327.61,11.58,0000 0000 0000 0000 000000
2013-12-18 02:11:17,0.18,3.48,0.00,24.02,26.95,29.83,6.02,30.67,1032.88,2041.03,2348.43,2439.54,2652.33,349.75,327.03,11.58,0000 0000 0000 0000 000000
2013-12-18 02:12:17,0.34,3.48,0.00,24.03,26.95,29.82,6.03,30.92,1032.86,2041.04,2348.14,2439.20,2652.12,349.44,327.58,11.59,0000 0000 0000 0000 000000
2013-12-18 02:13:17,0.21,3.48,0.00,24.04,26.95,29.83,6.03,30.54,1032.86,2041.05,2347.76,2439.06,2651.90,349.96,327.66,11.59,0000 0000 0000 0000 000000
2013-12-18 02:14:18,0.18,3.48,0.00,24.02,26.95,29.84,6.07,30.71,1032.90,2041.02,2347.31,2438.78,2651.45,350.19,328.21,11.60,0000 0000 0000 0000 000000
2013-12-18 02:15:18,0.28,3.48,0.00,23.94,26.95,29.80,5.92,30.54,1032.93,2041.05,2347.03,2438.33,2651.16,348.64,326.96,11.61,0000 0000 0000 0000 000000
2013-12-18 02:16:18,0.30,3.48,0.00,23.97,26.95,29.79,5.91,30.88,1032.92,2041.03,2346.49,2438.10,2650.97,349.44,327.57,11.61,0000 0000 0000 0000 000000
2013-12-18 02:17:18,0.23,3.48,0.00,24.00,26.95,29.81,6.06,30.75,1032.98,2041.06,2346.17,2437.90,2650.53,350.78,328.81,11.62,0000 0000 0000 0000 000000
2013-12-18 02:18:19,0.28,3.49,0.00,24.09,26.95,29.81,6.29,30.96,1033.01,2041.06,2345.77,2437.45,2650.19,350.43,328.39,11.62,0000 0000 0000 0000 000000
2013-12-18 02:19:19,0.26,3.49,0.00,24.10,26.94,29.81,6.11,30.88,1033.09,2041.04,2345.29,2437.16,2650.01,350.47,328.67,11.63,0000 0000 0000 0000 000000
2013-12-18 02:20:19,0.23,3.49,0.00,24.06,26.94,29.84,6.10,30.79,1033.11,2041.05,2345.03,2437.01,2649.57,349.36,327.00,11.64,0000 0000 0000 0000 000000
2013-12-18 02:21:19,0.22,3.49,0.00,24.15,26.94,29.83,6.13,30.88,1033.04,2041.05,2344.49,2436.66,2649.21,351.47,329.42,11.64,0000 0000 0000 0000 000000
2013-12-18 02:22:20,0.28,3.49,0.00,24.19,26.94,29.80,6.10,31.21,1033.07,2041.02,2344.17,2436.25,2649.04,349.59,327.51,11.65,0000 0000 0000 0000 000000
2013-12-18 02:23:20,0.25,3.49,0.00,24.23,26.93,29.80,5.95,30.96,1033.09,2041.02,2343.76,2436.07,2648.57,349.82,327.68,11.65,0000 0000 0000 0000 000000
2013-12-18 02:24:21,0.24,3.49,0.00,24.23,26.93,29.81,6.05,30.67,1033.13,2041.03,2343.28,2435.74,2648.20,349.98,327.84,11.66,0000 0000 0000 0000 000000
2013-12-18 02:25:21,0.30,3.50,0.00,24.16,26.93,29.82,5.95,30.58,1033.18,2041.02,2343.01,2435.29,2648.02,349.62,327.61,11.67,0000 0000 0000 0000 000000
2013-12-18 02:26:21,0.27,3.50,0.00,24.06,26.92,29.82,5.96,30.54,1033.20,2041.03,2342.50,2435.10,2647.61,349.26,327.39,11.67,0000 0000 0000 0000 000000
2013-12-18 02:27:21,0.24,3.50,0.00,24.10,26.92,29.82,6.02,30.71,1033.19,2041.02,2342.18,2434.95,2647.23,349.95,327.98,11.68,0000 0000 0000 0000 000000
2013-12-18 02:28:21,0.21,3.50,0.00,24.10,26.92,29.84,6.20,30.63,1033.19,2041.01,2341.87,2434.48,2647.05,351.16,329.11,11.68,0000 0000 0000 0000 000000
2013-12-18 02:29:22,0.26,3.50,0.00,24.19,26.92,29.82,5.89,30.54,1033.20,2041.02,2341.33,2434.17,2646.66,348.68,326.70,11.69,0000 0000 0000 0000 000000
2013-12-18 02:30:22,0.30,3.50,0.00,24.22,26.92,29.87,6.18,30.50,1033.22,2041.03,2341.07,2434.02,2646.24,351.01,328.85,11.69,0000 0000 0000 0000 000000
2013-12-18 02:31:22,0.23,3.51,0.00,24.15,26.92,29.86,6.00,30.50,1033.21,2041.04,2340.50,2433.66,2646.06,349.20,327.09,11.70,0000 0000 0000 0000 000000
2013-12-18 02:32:22,0.28,3.51,0.00,24.03,26.92,29.83,6.04,30.58,1033.22,2041.06,2340.18,2433.26,2645.80,350.34,328.19,11.71,0000 0000 0000 0000 000000
2013-12-18 02:33:23,0.28,3.51,0.00,24.17,26.92,29.82,5.94,30.50,1033.22,2041.06,2339.83,2433.08,2645.34,348.57,326.32,11.71,0000 0000 0000 0000 000000
2013-12-18 02:34:23,0.23,3.51,0.00,24.33,26.92,29.81,6.03,30.38,1033.22,2041.05,2339.32,2432.90,2645.12,349.41,327.23,11.72,0000 0000 0000 0000 000000
2013-12-18 02:35:23,0.25,3.51,0.00,24.31,26.92,29.82,6.03,30.67,1033.22,2041.08,2339.07,2432.44,2644.94,349.43,327.28,11.72,0000 0000 0000 0000 000000
2013-12-18 02:36:23,0.26,3.51,0.00,24.41,26.92,29.81,5.99,30.46,1033.21,2041.10,2338.60,2432.17,2644.48,349.21,326.96,11.73,0000 0000 0000 0000 000000